| DS18B20 | SHTC3 | ||||||
|---|---|---|---|---|---|---|---|
| ID | Date d/m/Y & Time | data1 สูง | data2 ต่ำ | data3 นอก | temp pcb | hum pcb | Time |
| 10265 | 09/04/2026 14:02:25 | 33.8  | 32.8  | 31.5  | 33.3  | 66.1  | 14:02 |
| 10264 | 09/04/2026 13:57:44 | 33.9  | 32.8  | 32.1  | 33.5  | 65.9  | 13:57 |
| 10263 | 09/04/2026 13:53:02 | 33.9  | 32.8  | 33.0  | 33.4  | 65.7  | 13:53 |
| 10262 | 09/04/2026 13:48:18 | 34.1  | 32.8  | 32.9  | 33.6  | 65.6  | 13:48 |
| 10261 | 09/04/2026 13:43:36 | 34.1  | 32.8  | 33.0  | 33.5  | 65.6  | 13:43 |
| 10260 | 09/04/2026 13:38:54 | 34.2  | 32.8  | 33.4  | 33.3  | 65.3  | 13:38 |
| 10259 | 09/04/2026 13:34:10 | 34.2  | 32.8  | 33.7  | 33.3  | 65.3  | 13:34 |
| 10258 | 09/04/2026 13:29:28 | 34.2  | 32.8  | 34.0  | 33.5  | 65.2  | 13:29 |
| 10257 | 09/04/2026 13:24:46 | 34.2  | 32.7  | 34.5  | 33.4  | 65.1  | 13:24 |
| 10256 | 09/04/2026 13:20:04 | 34.2  | 32.6  | 33.8  | 33.4  | 65.4  | 13:20 |
| 10255 | 09/04/2026 13:15:23 | 34.2  | 32.6  | 34.0  | 33.3  | 65.3  | 13:15 |
| 10254 | 09/04/2026 13:10:41 | 34.1  | 32.6  | 34.1  | 33.4  | 65.4  | 13:10 |
| 10253 | 09/04/2026 13:05:59 | 34.2  | 32.6  | 33.9  | 33.4  | 65.4  | 13:05 |
| 10252 | 09/04/2026 13:01:17 | 34.2  | 32.6  | 34.0  | 33.3  | 65.4  | 13:01 |
| 10251 | 09/04/2026 12:56:34 | 34.1  | 32.6  | 34.2  | 33.3  | 65.7  | 12:56 |
| 10250 | 09/04/2026 12:51:52 | 34.1  | 32.6  | 34.2  | 33.3  | 66.1  | 12:51 |
| 10249 | 09/04/2026 12:47:11 | 34.1  | 32.4  | 34.5  | 33.2  | 65.2  | 12:47 |
| 10248 | 09/04/2026 12:42:26 | 34.1  | 32.4  | 34.5  | 33.1  | 65.2  | 12:42 |
| 10247 | 09/04/2026 12:37:44 | 34.0  | 32.4  | 34.4  | 33.1  | 65.2  | 12:37 |
| 10246 | 09/04/2026 12:33:02 | 33.9  | 32.4  | 34.8  | 33.0  | 65.3  | 12:33 |
| 10245 | 09/04/2026 12:28:17 | 33.9  | 32.3  | 34.0  | 33.0  | 65.2  | 12:28 |
| 10244 | 09/04/2026 12:23:36 | 33.8  | 32.2  | 34.9  | 33.0  | 65.0  | 12:23 |
| 10243 | 09/04/2026 12:18:53 | 33.8  | 32.1  | 34.4  | 32.8  | 64.2  | 12:18 |
| 10242 | 09/04/2026 12:14:11 | 33.8  | 32.0  | 34.5  | 32.8  | 64.2  | 12:14 |